[[{"header":{"parameterUnit":"m.s-1","parameterCategory":1,"la1":30.2991,"la2":30.254,"lo1":-89.0895,"lo2":-89.0444,"dy":0.0017,"dx":0.0017,"nx":28,"ny":28,"refTime":"2024-03-11T09:00:00:Z","depth":0,"parameterNumber":2,"parameterNumberName":"U-component_of_WINDS"},"data":[0,0,0,0,0,0,0,0,0,0,0,0,0,0,0,0,0,0,0,0,0,0,0,0,0,0,0,0,0,0,0,0,0,0,0,0,0,0,0,0,0,0,0,0,0,0,0,0,0,0,0,0,0,0,0,0,0,0,-0.4656,-0.4656,0,-0.4716,-0.4717,-0.4717,-0.4709,-0.4708,-0.4707,-0.4706,-0.4771,-0.4774,-0.4777,0,0,0,0,0,0,0,0,0,0,0,0,0,-0.4536,-0.4538,-0.4656,-0.4656,-0.4657,-0.4716,-0.4717,-0.4718,-0.4709,-0.4708,-0.4707,-0.4706,-0.4771,-0.4774,-0.4777,0,0,0,0,0,0,0,0,0,0,0,0,0,-0.4591,-0.4539,-0.4656,-0.466,-0.4661,-0.4716,-0.4717,-0.4718,-0.4709,-0.4708,-0.4706,-0.4705,-0.477,-0.4773,-0.4777,-0.4833,0,0,-0.479,-0.4792,0,0,0,0,0,0,0,0,-0.4588,-0.4596,-0.4659,-0.466,-0.4661,-0.4703,-0.4699,-0.4757,-0.471,-0.4691,-0.4706,-0.4704,-0.475,-0.4756,-0.4771,-0.4836,-0.4839,-0.479,-0.4793,-0.4794,-0.4795,0,0,0,0,0,0,0,-0.4584,-0.4593,-0.468,-0.4659,-0.4661,-0.466,-0.4666,-0.4709,-0.4729,-0.4693,-0.4692,-0.4699,-0.4751,-0.4767,-0.4772,-0.484,-0.479,-0.4794,-0.4796,-0.4798,-0.4954,-0.4955,0,0,0,0,0,0,-0.4579,-0.459,-0.4678,-0.4681,-0.462,-0.4663,-0.467,-0.4691,-0.4728,-0.4732,-0.4701,-0.4699,-0.4761,-0.4767,-0.4774,-0.4842,-0.4794,-0.4798,-0.48,-0.4952,-0.4954,-0.4956,0,0,0,0,0,0,-0.4576,-0.4587,-0.4675,-0.4636,-0.4647,-0.4667,-0.4691,-0.4693,-0.4709,-0.4734,-0.4738,-0.4713,-0.476,-0.4769,-0.4818,-0.4844,-0.48,-0.4804,-0.495,-0.4952,-0.4955,-0.4978,0,0,0,0,0,0,-0.4573,-0.4586,-0.4607,-0.4636,-0.4649,-0.4717,-0.4692,-0.4696,-0.4716,-0.4714,-0.4747,-0.4751,-0.4759,-0.4812,-0.4822,-0.4849,-0.4807,-0.4948,-0.4951,-0.4954,-0.4975,-0.4981,-0.4986,0,0,0,0,0,-0.4569,-0.4612,-0.4608,-0.4618,-0.4675,-0.4719,-0.4726,-0.4734,-0.4718,-0.474,-0.4755,-0.475,-0.4839,-0.4817,-0.4828,-0.4857,-0.4946,-0.495,-0.4954,-0.4973,-0.498,-0.4986,0,0,0,0,0,0,-0.4586,-0.4616,-0.4612,-0.4665,-0.4689,-0.4717,-0.4745,-0.4741,-0.4772,-0.4769,-0.4778,-0.4786,-0.4836,-0.4851,-0.4826,-0.4913,-0.4891,-0.4897,-0.4901,-0.4908,-0.4914,-0.491,-0.481,0,0,0,0,0,-0.4596,-0.4628,-0.4652,-0.4697,-0.4709,-0.4725,-0.4744,-0.4748,-0.4774,-0.4785,-0.4804,-0.483,-0.4864,-0.4887,-0.4919,-0.4976,-0.4984,-0.5001,-0.5007,-0.5011,-0.5018,-0.5049,-0.5058,-0.4969,-0.4968,-0.4968,0,0,-0.4617,-0.4637,-0.4657,-0.4701,-0.4721,-0.4755,-0.4734,-0.4771,-0.4797,-0.4791,-0.4839,-0.4853,-0.4883,-0.4937,-0.4961,-0.4951,-0.5043,-0.5016,-0.502,-0.5024,-0.5054,-0.5063,-0.507,-0.4971,-0.4971,-0.497,0,0,-0.4674,-0.4691,-0.4731,-0.475,-0.4779,-0.4789,-0.4798,-0.4826,-0.4836,-0.4883,-0.488,-0.491,-0.4969,-0.499,-0.5009,-0.5072,-0.5069,-0.5082,-0.5113,-0.5143,-0.515,-0.5157,-0.518,-0.5188,-0.5088,-0.5088,-0.5088,0,-0.4697,-0.4748,-0.4752,-0.4789,-0.4809,-0.4803,-0.4844,-0.4863,-0.4901,-0.4916,-0.4903,-0.4976,-0.4995,-0.5054,-0.5069,-0.5084,-0.5096,-0.508,-0.5149,-0.5155,-0.5161,-0.5184,-0.5192,-0.5089,-0.5089,-0.5089,-0.5089,0,-0.4775,-0.481,-0.4839,-0.4875,-0.4897,-0.4936,-0.4948,-0.497,-0.4971,-0.4982,-0.5031,-0.5054,-0.5091,-0.5105,-0.5107,-0.5164,-0.5157,-0.5146,-0.5125,-0.5171,-0.5193,-0.5201,-0.5092,-0.5091,-0.5091,-0.509,0,0,-0.4847,-0.4884,-0.4894,-0.491,-0.4941,-0.4969,-0.5007,-0.5042,-0.5062,-0.5088,-0.5121,-0.517,-0.516,-0.5181,-0.5185,-0.5212,-0.5261,-0.5198,-0.5199,-0.521,-0.5327,-0.5336,-0.5346,-0.5258,-0.526,-0.5261,-0.5324,0,-0.4908,-0.4975,-0.498,-0.5041,-0.5073,-0.5067,-0.5101,-0.5124,-0.5135,-0.5165,-0.5177,-0.5212,-0.5196,-0.5208,-0.5234,-0.525,-0.5285,-0.5245,-0.5291,-0.5292,-0.5285,-0.5357,-0.5367,-0.5426,-0.5333,-0.5334,-0.5335,0,-0.4988,-0.5016,-0.508,-0.5105,-0.5119,-0.5149,-0.5181,-0.5209,-0.5235,-0.5241,-0.5264,-0.5264,-0.5304,-0.5279,-0.5335,-0.5308,-0.5327,-0.5337,-0.5339,-0.5346,-0.5318,-0.5366,-0.5445,-0.5454,-0.5348,-0.5347,-0.5346,0,-0.5036,-0.5089,-0.5134,-0.5147,-0.5178,-0.5199,-0.5213,-0.5237,-0.5258,-0.5286,-0.53,-0.5332,-0.5351,-0.5377,-0.5386,-0.5367,-0.5442,-0.5418,-0.5449,-0.5449,-0.5468,-0.5467,-0.5552,-0.5476,-0.5476,-0.5476,-0.5476,0,-0.5105,-0.5144,-0.5155,-0.5184,-0.5228,-0.5232,-0.5277,-0.5289,-0.531,-0.5341,-0.5338,-0.5367,-0.5376,-0.5407,-0.5414,-0.546,-0.5469,-0.5476,-0.5477,-0.5477,-0.5476,-0.5491,-0.5488,-0.5478,-0.5478,-0.5477,-0.5477,0,-0.5167,-0.5175,-0.5224,-0.5248,-0.5255,-0.5287,-0.5308,-0.5335,-0.5345,-0.5384,-0.5393,-0.5409,-0.5445,-0.5456,-0.55,-0.5505,-0.5559,-0.5556,-0.555,-0.5551,-0.5583,-0.558,-0.5682,-0.5695,-0.561,-0.561,-0.5611,0,-0.5211,-0.5241,-0.5268,-0.5287,-0.5302,-0.5334,-0.5354,-0.536,-0.5381,-0.5412,-0.5436,-0.5471,-0.55,-0.5558,-0.5574,-0.5608,-0.5607,-0.564,-0.5612,-0.5611,-0.5609,-0.5608,-0.5612,-0.5646,-0.5647,-0.5648,-0.5648,0,-0.5289,-0.5291,-0.532,-0.5351,-0.5375,-0.54,-0.5423,-0.544,-0.5449,-0.5473,-0.551,-0.5532,-0.5576,-0.5611,-0.5645,-0.566,-0.5657,-0.5656,-0.5666,-0.5667,-0.5663,-0.5667,-0.5567,-0.5655,-0.5654,-0.5654,-0.5653,-0.5653,-0.5345,-0.5371,-0.5394,-0.5426,-0.5444,-0.5466,-0.5493,-0.5505,-0.5535,-0.557,-0.5571,-0.5611,-0.5635,-0.568,-0.5696,-0.5728,-0.5719,-0.5732,-0.5736,-0.5739,-0.5743,-0.5656,-0.5734,-0.5734,-0.5734,-0.5734,-0.5733,0,-0.5424,-0.5437,-0.5467,-0.5499,-0.5525,-0.5516,-0.5542,-0.5564,-0.5599,-0.5621,-0.5649,-0.5691,-0.5725,-0.5742,-0.5776,-0.5798,-0.5798,-0.5807,-0.5807,-0.5811,-0.5749,-0.5738,-0.5807,-0.5807,-0.5807,-0.5807,-0.5807,-0.5807,-0.5468,-0.5513,-0.5518,-0.5571,-0.5585,-0.5623,-0.5638,-0.5658,-0.5676,-0.5722,-0.575,-0.5761,-0.5781,-0.5816,-0.5848,-0.5852,-0.5865,-0.5877,-0.588,-0.5822,-0.5815,-0.5808,-0.5798,-0.5879,-0.5879,-0.594,-0.594,-0.5941]},{"header":{"parameterUnit":"m.s-1","parameterCategory":1,"la1":30.2991,"la2":30.254,"lo1":-89.0895,"lo2":-89.0444,"dy":0.0017,"dx":0.0017,"nx":28,"ny":28,"refTime":"2024-03-11T09:00:00:Z","depth":0,"parameterNumber":3,"parameterNumberName":"V-component_of_WINDS"},"data":[0,0,0,0,0,0,0,0,0,0,0,0,0,0,0,0,0,0,0,0,0,0,0,0,0,0,0,0,0,0,0,0,0,0,0,0,0,0,0,0,0,0,0,0,0,0,0,0,0,0,0,0,0,0,0,0,0,0,-4.0693,-4.0694,0,-4.0804,-4.0805,-4.0806,-4.0746,-4.0743,-4.074,-4.0737,-4.0847,-4.0853,-4.0858,0,0,0,0,0,0,0,0,0,0,0,0,0,-4.0427,-4.0432,-4.0693,-4.0694,-4.0696,-4.0803,-4.0805,-4.0806,-4.0747,-4.0743,-4.074,-4.0736,-4.0845,-4.0852,-4.0859,0,0,0,0,0,0,0,0,0,0,0,0,0,-4.054,-4.0434,-4.0693,-4.0679,-4.0679,-4.0803,-4.0805,-4.0807,-4.0748,-4.0743,-4.0739,-4.0734,-4.0843,-4.0851,-4.086,-4.1003,0,0,-4.0886,-4.089,0,0,0,0,0,0,0,0,-4.0534,-4.055,-4.068,-4.068,-4.068,-4.0757,-4.0751,-4.0872,-4.0749,-4.0721,-4.0737,-4.0732,-4.082,-4.0831,-4.0861,-4.1008,-4.1012,-4.0887,-4.0892,-4.0896,-4.0898,0,0,0,0,0,0,0,-4.0526,-4.0545,-4.0736,-4.0682,-4.0682,-4.0666,-4.0677,-4.0774,-4.0795,-4.0723,-4.0719,-4.0734,-4.082,-4.0853,-4.0863,-4.1014,-4.0886,-4.0894,-4.0899,-4.0903,-4.1283,-4.1287,0,0,0,0,0,0,-4.052,-4.0539,-4.0733,-4.074,-4.0595,-4.0675,-4.0687,-4.0737,-4.0793,-4.0798,-4.0737,-4.073,-4.0841,-4.0853,-4.0867,-4.1038,-4.0896,-4.0904,-4.0908,-4.1278,-4.1284,-4.1289,0,0,0,0,0,0,-4.0514,-4.0538,-4.0729,-4.0638,-4.0662,-4.0684,-4.074,-4.0741,-4.0774,-4.0804,-4.0807,-4.0768,-4.0837,-4.0855,-4.0969,-4.1041,-4.0907,-4.0915,-4.1272,-4.128,-4.1287,-4.1381,0,0,0,0,0,0,-4.0507,-4.0536,-4.0591,-4.064,-4.0667,-4.0831,-4.0744,-4.0747,-4.079,-4.0782,-4.0833,-4.0837,-4.0835,-4.0957,-4.0978,-4.105,-4.0922,-4.1266,-4.1275,-4.1284,-4.1372,-4.1391,-4.1407,0,0,0,0,0,-4.0498,-4.0613,-4.0595,-4.0618,-4.0737,-4.0835,-4.085,-4.0846,-4.0796,-4.0851,-4.087,-4.0836,-4.1029,-4.0969,-4.0992,-4.1068,-4.1261,-4.1273,-4.1283,-4.1364,-4.1387,-4.1407,0,0,0,0,0,0,-4.0571,-4.0619,-4.0599,-4.0734,-4.0781,-4.0825,-4.0895,-4.0871,-4.0933,-4.0923,-4.0914,-4.0926,-4.1046,-4.1068,-4.1,-4.1209,-4.1137,-4.1154,-4.1191,-4.1213,-4.123,-4.1223,-4.0929,0,0,0,0,0,-4.0603,-4.068,-4.0717,-4.0833,-4.0857,-4.0872,-4.0915,-4.0908,-4.0956,-4.0975,-4.1002,-4.1049,-4.112,-4.1168,-4.1235,-4.1374,-4.1385,-4.1438,-4.1456,-4.147,-4.1484,-4.156,-4.1584,-4.1326,-4.1326,-4.1326,0,0,-4.0669,-4.0705,-4.0754,-4.0848,-4.0884,-4.0963,-4.0889,-4.0976,-4.1035,-4.0988,-4.1099,-4.112,-4.1171,-4.13,-4.1357,-4.1322,-4.1558,-4.1484,-4.1496,-4.1502,-4.1574,-4.1598,-4.162,-4.1333,-4.1332,-4.1331,0,0,-4.0831,-4.0866,-4.0967,-4.1004,-4.1059,-4.1068,-4.1092,-4.114,-4.1153,-4.1264,-4.1231,-4.1299,-4.1422,-4.1461,-4.1496,-4.1672,-4.1643,-4.1694,-4.1787,-4.1861,-4.1881,-4.1899,-4.1963,-4.1985,-4.1708,-4.1709,-4.1709,0,-4.0907,-4.1026,-4.102,-4.1111,-4.1153,-4.1115,-4.1216,-4.1252,-4.1326,-4.1355,-4.1315,-4.1469,-4.1501,-4.1637,-4.168,-4.171,-4.1737,-4.1689,-4.1879,-4.1897,-4.1914,-4.1974,-4.1998,-4.1714,-4.1714,-4.1713,-4.1713,0,-4.1117,-4.12,-4.1274,-4.1348,-4.1398,-4.1493,-4.15,-4.1552,-4.154,-4.1553,-4.1666,-4.1703,-4.1777,-4.1809,-4.1798,-4.1944,-4.192,-4.188,-4.1808,-4.1944,-4.2001,-4.2024,-4.1723,-4.1721,-4.1719,-4.1718,0,0,-4.1329,-4.1399,-4.1426,-4.1459,-4.1517,-4.1581,-4.1673,-4.1747,-4.1791,-4.1843,-4.192,-4.2025,-4.1988,-4.2029,-4.2021,-4.2086,-4.2224,-4.2037,-4.2038,-4.2071,-4.2387,-4.2418,-4.2445,-4.2204,-4.2209,-4.2212,-4.2383,0,-4.1495,-4.1659,-4.1656,-4.1808,-4.1884,-4.1849,-4.193,-4.1974,-4.1988,-4.2054,-4.2069,-4.2144,-4.2089,-4.2113,-4.2176,-4.2194,-4.2287,-4.2181,-4.2275,-4.2279,-4.2265,-4.2474,-4.2507,-4.2666,-4.2405,-4.2408,-4.2411,0,-4.1712,-4.1773,-4.1932,-4.1979,-4.2011,-4.2084,-4.2151,-4.2215,-4.2263,-4.2269,-4.2315,-4.2297,-4.239,-4.2315,-4.2442,-4.237,-4.2408,-4.2423,-4.2429,-4.2438,-4.2354,-4.249,-4.2717,-4.2741,-4.2446,-4.2443,-4.244,0,-4.1852,-4.1973,-4.2084,-4.2113,-4.2171,-4.2223,-4.2249,-4.2293,-4.2337,-4.2396,-4.2424,-4.2492,-4.2529,-4.2582,-4.2582,-4.2527,-4.2711,-4.2636,-4.2718,-4.2719,-4.276,-4.2757,-4.2997,-4.2783,-4.2783,-4.2782,-4.2782,0,-4.2038,-4.2137,-4.2148,-4.2216,-4.2326,-4.2321,-4.2429,-4.245,-4.249,-4.2561,-4.2534,-4.2601,-4.2597,-4.2665,-4.2666,-4.2771,-4.2788,-4.2795,-4.2794,-4.2798,-4.2797,-4.2824,-4.2813,-4.2788,-4.2787,-4.2786,-4.2785,0,-4.2213,-4.2224,-4.2343,-4.2388,-4.2402,-4.2481,-4.2518,-4.2583,-4.2594,-4.2685,-4.2706,-4.2724,-4.2802,-4.2808,-4.2898,-4.2898,-4.3026,-4.3013,-4.3011,-4.3009,-4.3091,-4.3084,-4.3357,-4.3393,-4.3155,-4.3157,-4.3159,0,-4.2332,-4.2408,-4.2461,-4.2508,-4.2537,-4.2612,-4.2658,-4.2655,-4.2703,-4.2764,-4.2822,-4.2897,-4.2958,-4.3084,-4.3105,-4.3173,-4.3162,-4.3253,-4.3172,-4.3173,-4.3164,-4.316,-4.3167,-4.3269,-4.3271,-4.3273,-4.3275,0,-4.2543,-4.2544,-4.2612,-4.2682,-4.2737,-4.2792,-4.2842,-4.2881,-4.2885,-4.294,-4.3021,-4.3068,-4.316,-4.3236,-4.3303,-4.3328,-4.3303,-4.33,-4.3323,-4.3329,-4.3325,-4.3328,-4.3055,-4.3294,-4.3292,-4.3291,-4.329,-4.3289,-4.2694,-4.276,-4.2808,-4.2884,-4.2922,-4.297,-4.3033,-4.3053,-4.312,-4.3197,-4.319,-4.3279,-4.3325,-4.3413,-4.3443,-4.3512,-4.3481,-4.3514,-4.3522,-4.3531,-4.354,-4.3313,-4.3524,-4.3523,-4.3523,-4.3522,-4.3522,0,-4.2904,-4.2933,-4.3003,-4.3075,-4.3135,-4.3106,-4.3161,-4.3212,-4.3292,-4.3337,-4.3397,-4.349,-4.3562,-4.3589,-4.3659,-4.3709,-4.3699,-4.3728,-4.3725,-4.3731,-4.3563,-4.3537,-4.3735,-4.3735,-4.3735,-4.3735,-4.3735,-4.3735,-4.302,-4.313,-4.3137,-4.3265,-4.3293,-4.3381,-4.3415,-4.3459,-4.3495,-4.36,-4.3661,-4.3678,-4.3715,-4.3788,-4.3854,-4.3859,-4.3887,-4.3921,-4.3921,-4.3764,-4.3743,-4.3722,-4.3697,-4.3926,-4.3927,-4.4084,-4.4085,-4.4086]}]]